Weather History for Hurlburt Field, FL

Change the Weather History Date:

Sunday, November 10, 2013

  Actual Average Record
Temperature  
Mean Temperature 64 °F -  
Max Temperature 75 °F 70 °F 80 °F (1998)
Min Temperature 52 °F 50 °F 37 °F (1996)
Degree Days  
Heating Degree Days 2    
Growing Degree Days 14 (Base 50)    
Moisture  
Dew Point 53 °F    
Average Humidity 67    
Maximum Humidity 88    
Minimum Humidity 46    
Precipitation  
Precipitation 0.00 in - - ()
Sea Level Pressure  
Sea Level Pressure 30.19 in    
Wind  
Wind Speed 6 mph (NE)    
Max Wind Speed 9 mph    
Max Gust Speed -    
Visibility 10 miles    
Events Rain    
Averages and records for this station are not official NWS values.
T = Trace of Precipitation, MM = Missing Value Source: NWS Daily Summary

Daily Weather History Graph

Daily Weather History Graph

Search for Another Location

Airport:

Trip Planner

Search our weather history database for the weather conditions in past years. The results will help you decide how hot, cold, wet, or windy it might be!

Date:

Astronomy

Nov. 10, 2013 Rise Set
Actual Time 6:08 AM CST 4:52 PM CST
Civil Twilight 5:43 AM CST 5:17 PM CST
Nautical Twilight 5:14 AM CST 5:46 PM CST
Astronomical Twilight 4:46 AM CST 6:14 PM CST
Moon 12:30 PM CST (11/10) No Moon Set
Length of Visible Light 11h 34m
Length of Day
10h 43m
First Quarter, 56% of the Moon is Illuminated
Nov 10
First Quarter
Nov 17
Full
Nov 25
Last Quarter
Dec 2
New
Dec 9
First Quarter

Hourly Weather History & Observations

Time (CST) Temp. Dew Point Humidity Pressure Visibility Wind Dir Wind Speed Gust Speed Precip Events Conditions
12:58 AM 54.1 °F 49.5 °F 84% 30.19 in 10.0 mi ENE 4.6 mph - N/A   Clear
1:58 AM 54.7 °F 50.0 °F 84% 30.20 in 10.0 mi North - - N/A   Clear
2:58 AM 52.7 °F 48.9 °F 87% 30.19 in 10.0 mi North 4.6 mph - N/A   Partly Cloudy
3:58 AM 52.3 °F 48.9 °F 88% 30.20 in 10.0 mi North 6.9 mph - N/A   Scattered Clouds
4:58 AM 53.2 °F 49.6 °F 88% 30.21 in 10.0 mi North 6.9 mph - N/A   Scattered Clouds
5:58 AM 53.2 °F 49.5 °F 87% 30.23 in 10.0 mi North 4.6 mph - N/A   Overcast
6:58 AM 52.9 °F 49.5 °F 88% 30.24 in 10.0 mi North 5.8 mph - N/A   Clear
7:44 AM 59.0 °F 51.8 °F 77% 30.25 in 10.0 mi NNE 5.8 mph - N/A Rain Light Rain
7:58 AM 59.9 °F 52.7 °F 77% 30.25 in 10.0 mi NE 5.8 mph - 0.00 in Rain Light Rain
8:00 AM 60.8 °F 53.6 °F 77% 30.24 in 10.0 mi NE 6.9 mph - N/A   Clear
8:58 AM 66.0 °F 54.7 °F 67% 30.25 in 10.0 mi ENE 6.9 mph - 0.00 in   Clear
9:58 AM 71.1 °F 56.1 °F 59% 30.24 in 10.0 mi NNE 4.6 mph - N/A   Partly Cloudy
10:58 AM 73.6 °F 55.4 °F 53% 30.23 in 10.0 mi ENE 8.1 mph - N/A   Clear
11:58 AM 75.6 °F 53.6 °F 46% 30.20 in 10.0 mi NE 9.2 mph - N/A   Clear
12:43 PM 75.2 °F 55.4 °F 50% 30.17 in 10.0 mi East 8.1 mph - N/A   Light Drizzle
12:53 PM 75.2 °F 55.4 °F 50% 30.16 in 10.0 mi SE 5.8 mph - N/A   Partly Cloudy
12:58 PM 75.7 °F 55.6 °F 49% 30.17 in 10.0 mi East 5.8 mph - 0.00 in   Partly Cloudy
1:58 PM 75.2 °F 55.2 °F 50% 30.16 in 10.0 mi East 8.1 mph - N/A   Partly Cloudy
2:58 PM 74.1 °F 54.5 °F 50% 30.16 in 10.0 mi ESE 8.1 mph - N/A   Mostly Cloudy
3:24 PM 73.4 °F 55.4 °F 53% 30.16 in 10.0 mi ESE 6.9 mph - N/A Rain Light Rain
3:27 PM 73.4 °F 55.4 °F 53% 30.16 in 10.0 mi ESE 8.1 mph - N/A   Partly Cloudy
3:28 PM 73.4 °F 55.4 °F 53% 30.16 in 10.0 mi ESE 8.1 mph - N/A Rain Light Rain
3:34 PM 73.4 °F 55.4 °F 53% 30.16 in 10.0 mi East 6.9 mph - N/A   Clear
3:58 PM 73.2 °F 54.7 °F 52% 30.17 in 10.0 mi East 6.9 mph - 0.00 in   Clear
4:13 PM 71.6 °F 55.4 °F 57% 30.16 in 10.0 mi East 5.8 mph - N/A   Light Drizzle
4:23 PM 71.6 °F 51.8 °F 50% 30.17 in 10.0 mi East 5.8 mph - N/A   Partly Cloudy
4:58 PM 70.3 °F 54.0 °F 56% 30.18 in 10.0 mi ENE 3.5 mph - 0.00 in   Mostly Cloudy
5:01 PM 69.8 °F 53.6 °F 56% 30.17 in 10.0 mi ENE 3.5 mph - N/A   Light Drizzle
5:04 PM 69.8 °F 53.6 °F 56% 30.17 in 10.0 mi ENE 2.3 mph - N/A   Overcast
5:58 PM 63.1 °F 56.5 °F 79% 30.19 in 10.0 mi North 5.8 mph - 0.00 in   Partly Cloudy
6:58 PM 62.8 °F 54.1 °F 73% 30.20 in 10.0 mi North 4.6 mph - N/A   Scattered Clouds
7:58 PM 59.7 °F 54.0 °F 81% 30.21 in 10.0 mi North 4.6 mph - N/A   Mostly Cloudy
8:58 PM 57.9 °F 53.2 °F 84% 30.21 in 10.0 mi North 3.5 mph - N/A   Clear
9:58 PM 56.8 °F 52.2 °F 84% 30.21 in 10.0 mi North 4.6 mph - N/A   Clear
10:58 PM 53.6 °F 49.6 °F 86% 30.20 in 10.0 mi North 4.6 mph - N/A   Clear
11:58 PM 54.7 °F 49.1 °F 81% 30.20 in 10.0 mi North 4.6 mph - N/A   Clear